Regional Weather Roundup
Issued by NWS

Home | Current Version | Previous Version | Text Only | Print | Product List | Glossary On
Versions: 1 2 3 4 5 6 7 8 9 10 11 12 13 14 15 16 17 18 19 20 21 22 23 24 25 26 27
000
ASUS45 KREV 270110
RWRNV
NEVADA REGIONAL WEATHER ROUNDUP
NATIONAL WEATHER SERVICE RENO NV
600 PM PDT WED JUL 26 2017

NOTE: "FAIR" INDICATES FEW OR NO CLOUDS BELOW 12,000 FEET WITH NO
SIGNIFICANT WEATHER AND/OR OBSTRUCTIONS TO VISIBILITY.

NVZ001-003-004-270200-
WESTERN NEVADA

CITY           SKY/WX    TMP DP  RH WIND       PRES   REMARKS
RENO           MOSUNNY   86  41  20 W18G26    30.09S
CARSON CITY    FAIR      82  46  28 W21G29    30.13S
MINDEN         FAIR      84  46  26 MISG      30.13S
FALLON         PTSUNNY   85  47  26 NE5       30.04R
LOVELOCK       MOSUNNY   90  39  16 W14       30.03F
HAWTHORNE      MOSUNNY   88  43  20 NE10      30.03R
$$

NVZ002-CAZ072-073-270200-
NORTHERN AND CENTRAL SIERRA

CITY           SKY/WX    TMP DP  RH WIND       PRES   REMARKS
S. LAKE TAHOE  MOSUNNY   74  45  35 SW8G17    30.25S
TRUCKEE        MOSUNNY   73  50  43 S6        30.25F
SQUAW VLY 8000   N/A     61  45  55 SW8         N/A
SUSANVILLE     SUNNY     84  32  15 SW9G18    30.10S
MAMMOTH LAKES  FAIR      77  42  28 W17G24    30.30S
BRIDGEPORT     FAIR      76  42  29 S10G20    30.26S
$$

NVZ030-031-036-270200-
NORTHERN NEVADA

CITY           SKY/WX    TMP DP  RH WIND       PRES   REMARKS
ELKO           PTSUNNY   90  31  12 MISG      30.10F
WINNEMUCCA     PTSUNNY   89  41  18 W20G30    30.07R
WENDOVER       LGT RAIN  72  61  68 SW20G26   30.13R
$$

NVZ035-037-270200-
CENTRAL NEVADA

CITY           SKY/WX    TMP DP  RH WIND       PRES   REMARKS
ELY              N/A    N/A N/A N/A MISG      30.29F
EUREKA           N/A     69  51  52 S14       30.22F
$$

NVZ013-014-270200-
SOUTH CENTRAL NEVADA

CITY           SKY/WX    TMP DP  RH WIND       PRES   REMARKS
TONOPAH        PTSUNNY   81  53  37 N9        30.16F
$$

NVZ017-020-022-270200-
SOUTHERN NEVADA

CITY           SKY/WX    TMP DP  RH WIND       PRES   REMARKS
LAS VEGAS      MOSUNNY   99  60  27 S12       29.92F
N. LAS VEGAS   SUNNY     98  59  27 E3        29.91F
NELLIS AFB     SUNNY     98  60  28 SE7       29.90F
HENDERSON      SUNNY    N/A N/A N/A VRB7      29.96F
MERCURY        MOSUNNY   96  53  23 S12       29.99F
$$




USA.gov is the U.S. government's official web portal to all federal, state and local government web resources and services.